GW4651 Weather Reports


time (UTC)temp
C
wind
direction
speed
KPH
gust
KPH
rain 1hr
cm
rain 24hr
cm
rain mn
cm
humidity
%
barometer
mb
20260504000605 12 6 3.2 4.8 0.00 0.00 0.00 82 1013.7
20260504000106 12 33 4.8 8.0 0.00 0.00 0.00 82 1013.8
20260503235607 12 10 3.2 4.8 0.00 0.00 0.00 81 1013.8
20260503234605 12 7 1.6 4.8 0.00 0.00 0.00 81 1013.8
20260503234106 12 2 1.6 3.2 0.00 0.00 0.00 80 1013.8
20260503233606 12 69 1.6 3.2 0.00 0.00 0.00 79 1013.7
20260503233106 12 109 1.6 3.2 0.00 0.00 0.00 79 1013.7
20260503231606 12 267 0.0 1.6 0.00 0.00 0.00 79 1013.8
20260503230605 12 112 1.6 3.2 0.00 0.00 0.00 79 1013.9
20260503230106 12 94 1.6 4.8 0.00 0.00 0.00 79 1014.1
20260503225615 12 25 1.6 4.8 0.00 0.00 0.00 79 1014.1
20260503225106 12 41 1.6 8.0 0.00 0.00 0.00 78 1014.1
20260503224605 12 49 4.8 4.8 0.00 0.00 0.00 78 1014.0
20260503224105 13 50 4.8 8.0 0.00 0.00 0.00 78 1013.9
20260503223605 13 46 4.8 8.0 0.00 0.00 0.00 77 1013.9
20260503223106 13 28 3.2 4.8 0.00 0.00 0.00 77 1014.1
20260503222605 13 355 1.6 3.2 0.00 0.00 0.00 77 1014.0
20260503222105 13 14 3.2 4.8 0.00 0.00 0.00 76 1013.9
20260503221105 13 7 3.2 4.8 0.00 0.00 0.00 75 1013.8
20260503220605 13 314 3.2 8.0 0.00 0.00 0.00 74 1013.8
20260503220106 13 0 1.6 4.8 0.00 0.00 0.00 74 1013.7
20260503215605 13 329 3.2 4.8 0.00 0.00 0.00 74 1013.7
20260503215105 13 323 1.6 8.0 0.00 0.00 0.00 74 1013.7
20260503214606 13 301 3.2 4.8 0.00 0.00 0.00 73 1013.7
20260503214106 13 331 1.6 4.8 0.00 0.00 0.00 73 1013.7
20260503213605 13 36 3.2 8.0 0.00 0.00 0.00 73 1013.8
20260503213105 13 28 3.2 8.0 0.00 0.00 0.00 72 1013.5
20260503211605 14 19 4.8 12.9 0.00 0.00 0.00 71 1013.4
20260503211105 14 309 4.8 8.0 0.00 0.00 0.00 71 1013.4
20260503210605 14 15 4.8 8.0 0.00 0.00 0.00 70 1013.3
20260503205606 14 340 4.8 11.3 0.00 0.00 0.00 69 1013.0
20260503205106 15 330 4.8 16.1 0.00 0.00 0.00 69 1013.3
20260503204605 15 298 9.7 19.3 0.00 0.00 0.00 68 1013.1
20260503204105 15 310 4.8 16.1 0.00 0.00 0.00 68 1013.0
20260503203605 15 318 8.0 19.3 0.00 0.00 0.00 67 1013.0
20260503203106 15 328 8.0 19.3 0.00 0.00 0.00 67 1012.6
20260503202605 15 303 11.3 19.3 0.00 0.00 0.00 66 1012.7
20260503202105 15 330 9.7 19.3 0.00 0.00 0.00 66 1012.7
20260503201606 15 322 9.7 20.9 0.00 0.00 0.00 65 1012.5
20260503200605 16 308 8.0 14.5 0.00 0.00 0.00 65 1012.2
20260503200105 16 339 4.8 12.9 0.00 0.00 0.00 65 1012.1
20260503195606 16 17 4.8 12.9 0.00 0.00 0.00 65 1011.9
20260503194605 16 310 9.7 20.9 0.00 0.00 0.00 64 1011.9
20260503194105 16 291 6.4 14.5 0.00 0.00 0.00 63 1011.7
20260503193605 16 300 6.4 14.5 0.00 0.00 0.00 63 1011.5
20260503192605 16 317 8.0 16.1 0.00 0.00 0.00 62 1011.3
20260503192106 16 324 4.8 14.5 0.00 0.00 0.00 62 1011.2
20260503191605 16 308 11.3 19.3 0.00 0.00 0.00 61 1010.9
20260503191105 17 348 6.4 16.1 0.00 0.00 0.00 61 1011.0
20260503190606 17 315 11.3 22.5 0.00 0.00 0.00 59 1010.8
20260503190105 17 297 8.0 19.3 0.00 0.00 0.00 59 1010.7
20260503184605 17 275 8.0 20.9 0.00 0.00 0.00 66 1010.3
20260503183106 17 254 8.0 12.9 0.00 0.00 0.00 67 1010.3
20260503182605 17 283 3.2 9.7 0.00 0.00 0.00 66 1010.1
20260503182106 18 282 6.4 11.3 0.00 0.00 0.00 65 1010.2
20260503181608 18 281 8.0 12.9 0.00 0.00 0.00 65 1010.3
20260503181106 18 246 8.0 16.1 0.00 0.00 0.00 65 1010.1
20260503180605 18 234 9.7 14.5 0.00 0.00 0.00 64 1010.1
20260503180105 18 231 8.0 14.5 0.00 0.00 0.00 64 1010.1
20260503175605 18 217 11.3 19.3 0.00 0.00 0.00 63 1009.9
20260503175105 18 205 8.0 20.9 0.00 0.00 0.00 62 1009.9
20260503174606 18 207 8.0 20.9 0.00 0.00 0.00 62 1010.0
20260503173105 18 200 9.7 16.1 0.00 0.00 0.00 62 1010.0
20260503172605 18 223 9.7 14.5 0.00 0.00 0.00 63 1009.9
20260503172104 18 221 8.0 9.7 0.00 0.00 0.00 63 1010.1
20260503171605 18 196 9.7 16.1 0.00 0.00 0.00 63 1010.1
20260503171104 18 206 8.0 14.5 0.00 0.00 0.00 63 1010.0
20260503170605 18 251 4.8 9.7 0.00 0.00 0.00 64 1010.1
20260503160105 18 318 8.0 14.5 0.00 0.00 0.00 64 1010.2
20260503150605 18 336 9.7 16.1 0.00 0.00 0.00 63 1010.4
20260503150104 18 323 6.4 12.9 0.00 0.00 0.00 62 1010.4
20260503140106 18 277 6.4 11.3 0.00 0.00 0.00 60 1010.7
20260503130605 20 241 16.1 32.2 0.00 0.00 0.00 49 1010.9
20260503130105 20 230 12.9 25.7 0.00 0.00 0.00 52 1010.7
20260503120106 19 190 19.3 33.8 0.00 0.00 0.00 52 1011.1
20260503110604 19 215 14.5 29.0 0.00 0.00 0.00 54 1011.9
20260503100104 17 202 19.3 29.0 0.00 0.00 0.00 65 1012.7
20260503090105 16 206 17.7 25.7 0.00 0.00 0.00 74 1012.9
20260503081604 15 250 9.7 12.9 0.00 0.00 0.00 83 1013.6
20260503081106 15 235 6.4 8.0 0.00 0.00 0.00 83 1013.5
20260503080604 15 210 4.8 9.7 0.00 0.00 0.00 84 1013.5
20260503080104 15 209 4.8 11.3 0.00 0.00 0.00 84 1013.6
20260503072604 14 219 1.6 8.0 0.00 0.00 0.00 88 1013.8
20260503072104 14 275 3.2 8.0 0.00 0.00 0.00 87 1013.6
20260503071604 14 237 4.8 8.0 0.00 0.00 0.00 86 1013.7
20260503070606 14 195 3.2 8.0 0.00 0.00 0.00 86 1013.7
20260503070104 14 211 3.2 8.0 0.00 0.00 0.00 86 1013.5
20260503060106 13 153 3.2 4.8 0.00 0.00 0.00 91 1013.5
20260503055107 13 354 3.2 8.0 0.00 0.00 0.00 90 1013.6
20260503054107 13 8 1.6 3.2 0.00 0.00 0.00 90 1013.6
20260503052606 13 315 3.2 4.8 0.00 0.00 0.00 88 1013.5
20260503052106 13 304 3.2 4.8 0.00 0.00 0.00 88 1013.5
20260503051606 13 61 3.2 8.0 0.00 0.00 0.00 88 1013.6
20260503051106 13 44 6.4 9.7 0.00 0.00 0.00 87 1013.7
20260503050607 13 308 1.6 3.2 0.00 0.00 0.00 87 1013.6
20260503050106 13 268 3.2 8.0 0.00 0.00 0.00 86 1013.4
20260503045606 13 223 3.2 8.0 0.00 0.00 0.00 86 1013.3
20260503044606 13 56 0.0 4.8 0.00 0.00 0.00 86 1013.3
20260503044105 13 91 3.2 8.0 0.00 0.00 0.00 86 1013.2
20260503043607 13 79 3.2 4.8 0.00 0.00 0.00 86 1013.6
20260503043106 13 223 1.6 4.8 0.00 0.00 0.00 85 1013.6
20260503042606 13 276 3.2 4.8 0.00 0.00 0.00 85 1013.4
20260503042106 13 201 1.6 4.8 0.00 0.00 0.00 86 1013.3
20260503041607 13 106 3.2 9.7 0.00 0.00 0.00 86 1013.4
20260503040606 13 318 4.8 8.0 0.00 0.00 0.00 83 1013.7
20260503035607 13 161 9.7 14.5 0.00 0.00 0.00 82 1013.1
20260503035106 13 133 8.0 12.9 0.00 0.00 0.00 81 1013.3
20260503034605 13 157 4.8 9.7 0.00 0.00 0.00 81 1013.2
20260503034105 13 121 4.8 8.0 0.00 0.00 0.00 82 1013.6
20260503033607 13 144 3.2 4.8 0.00 0.00 0.00 82 1013.5
20260503033105 13 179 4.8 8.0 0.00 0.00 0.00 81 1013.6
20260503032606 13 187 3.2 3.2 0.00 0.00 0.00 82 1013.8
20260503031607 13 150 1.6 8.0 0.00 0.00 0.00 81 1013.7
20260503031106 13 135 3.2 8.0 0.00 0.00 0.00 82 1013.7
20260503030606 13 159 4.8 9.7 0.00 0.00 0.00 82 1013.7
20260503030106 13 171 4.8 8.0 0.00 0.00 0.00 81 1013.6
20260503025605 13 154 0.0 3.2 0.00 0.00 0.00 82 1013.8
20260503024105 13 71 3.2 4.8 0.00 0.00 0.00 82 1013.6
20260503023606 13 53 1.6 3.2 0.00 0.00 0.00 82 1013.7
20260503023105 13 35 3.2 8.0 0.00 0.00 0.00 81 1013.5
20260503022607 13 81 4.8 8.0 0.00 0.00 0.00 82 1013.6
20260503022106 14 74 4.8 8.0 0.00 0.00 0.00 83 1013.7
20260503021605 14 321 3.2 4.8 0.00 0.00 0.00 81 1013.9
20260503021106 14 60 1.6 4.8 0.00 0.00 0.00 79 1013.5
20260503020605 14 123 3.2 4.8 0.00 0.00 0.00 80 1013.7
20260503020107 14 153 1.6 3.2 0.00 0.00 0.00 80 1013.9
20260503015605 14 165 1.6 8.0 0.00 0.00 0.00 81 1013.9
20260503015106 14 131 1.6 3.2 0.00 0.00 0.00 81 1013.7
20260503014105 14 184 3.2 4.8 0.00 0.00 0.00 81 1014.0
20260503013605 14 164 3.2 3.2 0.00 0.00 0.00 81 1014.0
20260503013106 14 176 3.2 4.8 0.00 0.00 0.00 81 1014.0
20260503012607 14 204 3.2 8.0 0.00 0.00 0.00 81 1013.9
20260503012106 14 181 4.8 9.7 0.00 0.00 0.00 81 1013.9
20260503011605 14 164 4.8 9.7 0.00 0.00 0.00 81 1013.9
20260503011106 14 125 3.2 4.8 0.00 0.00 0.00 81 1014.2
20260503010606 14 155 4.8 9.7 0.00 0.00 0.00 81 1014.2
20260503010105 14 161 4.8 11.3 0.00 0.00 0.00 81 1014.4
20260503005605 14 157 4.8 8.0 0.00 0.00 0.00 81 1014.3
20260503005106 15 135 3.2 11.3 0.00 0.00 0.00 81 1014.4
20260503004606 14 133 3.2 8.0 0.00 0.00 0.00 82 1014.4
20260503004105 14 143 4.8 11.3 0.00 0.00 0.00 82 1014.5
20260503003606 14 164 4.8 9.7 0.00 0.00 0.00 82 1014.6
20260503003105 14 154 4.8 8.0 0.00 0.00 0.00 82 1014.6
20260503002605 14 176 3.2 8.0 0.00 0.00 0.00 82 1014.5
20260503002105 14 165 1.6 8.0 0.00 0.00 0.00 82 1014.5
20260503001606 15 176 4.8 11.3 0.00 0.00 0.00 82 1014.5